2015-08-01 00:05:18 r, 18.00m,0000000006Hz,0000082654c,0000000.179s, 033.8C,00002195
2015-08-01 00:15:17 r, 17.99m,0000000006Hz,0000081604c,0000000.177s, 033.5C,00002195
2015-08-01 00:25:18 r, 17.97m,0000000006Hz,0000080848c,0000000.175s, 033.5C,00002195
2015-08-01 00:35:18 r, 17.96m,0000000006Hz,0000079926c,0000000.173s, 033.5C,00002195
2015-08-01 00:45:17 r, 17.95m,0000000005Hz,0000078953c,0000000.171s, 033.1C,00002195
2015-08-01 00:55:18 r, 17.94m,0000000006Hz,0000078697c,0000000.171s, 033.1C,00002195
2015-08-01 01:05:19 r, 17.95m,0000000006Hz,0000078708c,0000000.171s, 032.8C,00002195
2015-08-01 01:15:17 r, 17.94m,0000000006Hz,0000077816c,0000000.169s, 032.8C,00002195
2015-08-01 01:25:17 r, 17.94m,0000000006Hz,0000077739c,0000000.169s, 032.8C,00002195
2015-08-01 01:35:18 r, 17.93m,0000000006Hz,0000076874c,0000000.167s, 032.5C,00002195
2015-08-01 01:45:17 r, 17.92m,0000000006Hz,0000076752c,0000000.167s, 032.5C,00002195
2015-08-01 01:55:17 r, 17.92m,0000000006Hz,0000076527c,0000000.166s, 032.2C,00002195
2015-08-01 02:05:18 r, 17.92m,0000000006Hz,0000076770c,0000000.167s, 032.2C,00002195
2015-08-01 02:15:17 r, 17.94m,0000000006Hz,0000077454c,0000000.168s, 031.9C,00002195
2015-08-01 02:25:18 r, 17.94m,0000000006Hz,0000077734c,0000000.169s, 031.5C,00002195
2015-08-01 02:35:17 r, 17.94m,0000000006Hz,0000077772c,0000000.169s, 031.5C,00002195
2015-08-01 02:45:17 r, 17.94m,0000000005Hz,0000078794c,0000000.171s, 031.2C,00002195
2015-08-01 02:55:18 r, 17.95m,0000000006Hz,0000078851c,0000000.171s, 031.2C,00002195
2015-08-01 03:05:17 r, 17.97m,0000000006Hz,0000080457c,0000000.175s, 031.2C,00002195
2015-08-01 03:15:17 r, 17.96m,0000000006Hz,0000080034c,0000000.174s, 030.9C,00002195
2015-08-01 03:25:17 r, 17.98m,0000000006Hz,0000080976c,0000000.176s, 030.9C,00002195
2015-08-01 03:35:17 r, 17.97m,0000000006Hz,0000080576c,0000000.175s, 030.6C,00002195
2015-08-01 03:45:17 r, 18.00m,0000000006Hz,0000082769c,0000000.180s, 030.6C,00002195
2015-08-01 03:55:18 r, 18.00m,0000000005Hz,0000082662c,0000000.179s, 030.6C,00002195
2015-08-01 04:05:20 r, 18.00m,0000000006Hz,0000082664c,0000000.179s, 030.6C,00002195
2015-08-01 04:15:17 r, 17.99m,0000000005Hz,0000081931c,0000000.178s, 030.2C,00002195
2015-08-01 04:25:18 r, 17.91m,0000000006Hz,0000076720c,0000000.166s, 030.2C,00002195
2015-08-01 04:35:19 r, 17.71m,0000000008Hz,0000063232c,0000000.137s, 030.2C,00002195
2015-08-01 04:45:18 r, 17.35m,0000000010Hz,0000045167c,0000000.098s, 030.2C,00002195
2015-08-01 04:55:17 r, 16.66m,0000000019Hz,0000023989c,0000000.052s, 029.9C,00002195
2015-08-01 05:05:19 r, 15.55m,0000000053Hz,0000008672c,0000000.019s, 029.6C,00002195
2015-08-01 05:15:17 r, 13.96m,0000000232Hz,0000000000c,0000000.000s, 029.6C,00002195
2015-08-01 05:25:19 r, 12.24m,0000001136Hz,0000000000c,0000000.000s, 029.6C,00002195
2015-08-01 05:35:18 r, 10.59m,0000005212Hz,0000000000c,0000000.000s, 029.6C,00002195
2015-08-01 05:45:17 r, 09.14m,0000019648Hz,0000000000c,0000000.000s, 029.3C,00002195
2015-08-01 05:55:17 r, 08.00m,0000056067Hz,0000000000c,0000000.000s, 029.3C,00002195
2015-08-01 06:05:20 r, 07.12m,0000126379Hz,0000000000c,0000000.000s, 029.3C,00002195
2015-08-01 06:15:17 r, 06.53m,0000218754Hz,0000000000c,0000000.000s, 029.3C,00002195
2015-08-01 06:25:17 r, 06.11m,0000322125Hz,0000000000c,0000000.000s, 029.3C,00002195
2015-08-01 06:35:18 r, 00.00m,0000423173Hz,0000000000c,0000000.000s, 029.3C,00002195
2015-08-01 06:45:17 r, 00.00m,0000518833Hz,0000000000c,0000000.000s, 029.3C,00002195
2015-08-01 06:55:17 r, 00.00m,0000564118Hz,0000000000c,0000000.000s, 029.9C,00002195
2015-08-01 07:05:18 r, 00.00m,0000564166Hz,0000000000c,0000000.000s, 029.9C,00002195
2015-08-01 07:15:17 r, 00.00m,0000564198Hz,0000000000c,0000000.000s, 030.2C,00002195
2015-08-01 07:25:19 r, 00.00m,0000564178Hz,0000000000c,0000000.000s, 030.2C,00002195
2015-08-01 07:35:18 r, 00.00m,0000564235Hz,0000000000c,0000000.000s, 030.6C,00002195
2015-08-01 07:45:17 r, 00.00m,0000564202Hz,0000000000c,0000000.000s, 030.9C,00002195
2015-08-01 07:55:17 r, 00.00m,0000564278Hz,0000000000c,0000000.000s, 031.2C,00002195
2015-08-01 08:05:17 r, 00.00m,0000564326Hz,0000000000c,0000000.000s, 031.5C,00002195
2015-08-01 08:15:17 r, 00.00m,0000564405Hz,0000000000c,0000000.000s, 031.9C,00002195
2015-08-01 08:25:17 r, 00.00m,0000564354Hz,0000000000c,0000000.000s, 031.9C,00002195
2015-08-01 08:35:20 r, 00.00m,0000564391Hz,0000000000c,0000000.000s, 032.2C,00002195
2015-08-01 08:45:17 r, 00.00m,0000564447Hz,0000000000c,0000000.000s, 032.5C,00002195
2015-08-01 08:55:17 r, 00.00m,0000564411Hz,0000000000c,0000000.000s, 033.1C,00002195
2015-08-01 09:05:19 r, 00.00m,0000564530Hz,0000000000c,0000000.000s, 033.5C,00002195
2015-08-01 09:15:17 r, 00.00m,0000564916Hz,0000000000c,0000000.000s, 036.7C,00002195
2015-08-01 09:25:17 r, 00.00m,0000565222Hz,0000000000c,0000000.000s, 039.9C,00002195
2015-08-01 09:35:19 r, 00.00m,0000565423Hz,0000000000c,0000000.000s, 042.2C,00002195
2015-08-01 09:45:17 r, 00.00m,0000565647Hz,0000000000c,0000000.000s, 044.4C,00002195
2015-08-01 09:55:17 r, 00.00m,0000565712Hz,0000000000c,0000000.000s, 046.0C,00002195
2015-08-01 10:05:20 r, 00.00m,0000565862Hz,0000000000c,0000000.000s, 047.3C,00002195
2015-08-01 10:15:17 r, 00.00m,0000565788Hz,0000000000c,0000000.000s, 048.0C,00002195
2015-08-01 10:25:17 r, 00.00m,0000565872Hz,0000000000c,0000000.000s, 048.9C,00002195
2015-08-01 10:35:17 r, 00.00m,0000565917Hz,0000000000c,0000000.000s, 050.2C,00002195
2015-08-01 10:45:17 r, 00.00m,0000565966Hz,0000000000c,0000000.000s, 051.5C,00002195
2015-08-01 10:55:17 r, 00.00m,0000565947Hz,0000000000c,0000000.000s, 051.5C,00002195
2015-08-01 11:05:18 r, 00.00m,0000566163Hz,0000000000c,0000000.000s, 053.1C,00002195
2015-08-01 11:15:18 r, 00.00m,0000566092Hz,0000000000c,0000000.000s, 053.5C,00002195
2015-08-01 11:25:17 r, 00.00m,0000566010Hz,0000000000c,0000000.000s, 053.1C,00002195
2015-08-01 11:35:18 r, 00.00m,0000565965Hz,0000000000c,0000000.000s, 053.1C,00002195
2015-08-01 11:45:18 r, 00.00m,0000566128Hz,0000000000c,0000000.000s, 054.1C,00002195
2015-08-01 11:55:17 r, 00.00m,0000566034Hz,0000000000c,0000000.000s, 054.1C,00002195
2015-08-01 12:05:20 r, 00.00m,0000565996Hz,0000000000c,0000000.000s, 054.7C,00002195
2015-08-01 12:15:18 r, 00.00m,0000565914Hz,0000000000c,0000000.000s, 055.1C,00002195
2015-08-01 12:25:17 r, 00.00m,0000566022Hz,0000000000c,0000000.000s, 055.7C,00002195
2015-08-01 12:35:20 r, 00.00m,0000565980Hz,0000000000c,0000000.000s, 056.4C,00002195
2015-08-01 12:45:18 r, 00.00m,0000566058Hz,0000000000c,0000000.000s, 056.7C,00002195
2015-08-01 12:55:17 r, 00.00m,0000566080Hz,0000000000c,0000000.000s, 057.0C,00002195
2015-08-01 13:05:18 r, 00.00m,0000566084Hz,0000000000c,0000000.000s, 057.0C,00002195
2015-08-01 13:15:17 r, 00.00m,0000566048Hz,0000000000c,0000000.000s, 057.6C,00002195
2015-08-01 13:25:17 r, 00.00m,0000566116Hz,0000000000c,0000000.000s, 058.0C,00002195
2015-08-01 13:35:19 r, 00.00m,0000566110Hz,0000000000c,0000000.000s, 058.0C,00002195
2015-08-01 13:45:18 r, 00.00m,0000566066Hz,0000000000c,0000000.000s, 058.0C,00002195
2015-08-01 13:55:17 r, 00.00m,0000566038Hz,0000000000c,0000000.000s, 058.0C,00002195
2015-08-01 14:05:20 r, 00.00m,0000566094Hz,0000000000c,0000000.000s, 058.3C,00002195
2015-08-01 14:15:17 r, 00.00m,0000566114Hz,0000000000c,0000000.000s, 058.6C,00002195
2015-08-01 14:25:17 r, 00.00m,0000566064Hz,0000000000c,0000000.000s, 058.6C,00002195
2015-08-01 14:35:20 r, 00.00m,0000565942Hz,0000000000c,0000000.000s, 056.7C,00002195
2015-08-01 14:45:17 r, 00.00m,0000565914Hz,0000000000c,0000000.000s, 056.4C,00002195
2015-08-01 14:55:17 r, 00.00m,0000565944Hz,0000000000c,0000000.000s, 056.7C,00002195
2015-08-01 15:05:19 r, 00.00m,0000566056Hz,0000000000c,0000000.000s, 057.3C,00002195
2015-08-01 15:15:18 r, 00.00m,0000566035Hz,0000000000c,0000000.000s, 058.0C,00002195
2015-08-01 15:25:18 r, 00.00m,0000566050Hz,0000000000c,0000000.000s, 058.3C,00002195
2015-08-01 15:35:17 r, 00.00m,0000566037Hz,0000000000c,0000000.000s, 058.3C,00002195
2015-08-01 15:45:17 r, 00.00m,0000566010Hz,0000000000c,0000000.000s, 058.3C,00002195
2015-08-01 15:55:17 r, 00.00m,0000565976Hz,0000000000c,0000000.000s, 058.0C,00002195
2015-08-01 16:05:20 r, 00.00m,0000565952Hz,0000000000c,0000000.000s, 058.0C,00002195
2015-08-01 16:15:17 r, 00.00m,0000565920Hz,0000000000c,0000000.000s, 057.3C,00002195
2015-08-01 16:25:17 r, 00.00m,0000565927Hz,0000000000c,0000000.000s, 056.4C,00002195
2015-08-01 16:35:20 r, 00.00m,0000565892Hz,0000000000c,0000000.000s, 056.0C,00002195
2015-08-01 16:45:18 r, 00.00m,0000565726Hz,0000000000c,0000000.000s, 054.4C,00002195
2015-08-01 16:55:18 r, 00.00m,0000565737Hz,0000000000c,0000000.000s, 054.1C,00002195
2015-08-01 17:05:17 r, 00.00m,0000565659Hz,0000000000c,0000000.000s, 053.5C,00002195
2015-08-01 17:15:18 r, 00.00m,0000565495Hz,0000000000c,0000000.000s, 052.5C,00002195
2015-08-01 17:25:17 r, 00.00m,0000565381Hz,0000000000c,0000000.000s, 050.2C,00002195
2015-08-01 17:35:17 r, 00.00m,0000565473Hz,0000000000c,0000000.000s, 050.9C,00002195
2015-08-01 17:45:17 r, 00.00m,0000565552Hz,0000000000c,0000000.000s, 051.5C,00002195
2015-08-01 17:55:17 r, 00.00m,0000565270Hz,0000000000c,0000000.000s, 049.3C,00002195
2015-08-01 18:05:17 r, 00.00m,0000565244Hz,0000000000c,0000000.000s, 048.3C,00002195
2015-08-01 18:15:18 r, 00.00m,0000565234Hz,0000000000c,0000000.000s, 048.0C,00002195
2015-08-01 18:25:17 r, 00.00m,0000565302Hz,0000000000c,0000000.000s, 048.0C,00002195
2015-08-01 18:35:20 r, 00.00m,0000565149Hz,0000000000c,0000000.000s, 047.0C,00002195
2015-08-01 18:45:18 r, 00.00m,0000565089Hz,0000000000c,0000000.000s, 045.7C,00002195
2015-08-01 18:55:17 r, 00.00m,0000565018Hz,0000000000c,0000000.000s, 044.8C,00002195
2015-08-01 19:05:18 r, 00.00m,0000564970Hz,0000000000c,0000000.000s, 044.4C,00002195
2015-08-01 19:15:18 r, 00.00m,0000564957Hz,0000000000c,0000000.000s, 044.1C,00002195
2015-08-01 19:25:18 r, 00.00m,0000564978Hz,0000000000c,0000000.000s, 043.8C,00002195
2015-08-01 19:35:18 r, 00.00m,0000564962Hz,0000000000c,0000000.000s, 043.5C,00002195
2015-08-01 19:45:18 r, 00.00m,0000564966Hz,0000000000c,0000000.000s, 043.1C,00002195
2015-08-01 19:55:18 r, 00.00m,0000564848Hz,0000000000c,0000000.000s, 042.8C,00002195
2015-08-01 20:05:18 r, 00.00m,0000564883Hz,0000000000c,0000000.000s, 042.5C,00002195
2015-08-01 20:15:18 r, 00.00m,0000564782Hz,0000000000c,0000000.000s, 042.2C,00002195
2015-08-01 20:25:18 r, 00.00m,0000564908Hz,0000000000c,0000000.000s, 042.2C,00002195
2015-08-01 20:35:20 r, 00.00m,0000483278Hz,0000000000c,0000000.000s, 041.9C,00002195
2015-08-01 20:45:18 r, 00.00m,0000436251Hz,0000000000c,0000000.000s, 041.2C,00002195
2015-08-01 20:55:18 r, 07.04m,0000136351Hz,0000000000c,0000000.000s, 040.9C,00002195
2015-08-01 21:05:20 r, 08.30m,0000042861Hz,0000000000c,0000000.000s, 040.6C,00002195
2015-08-01 21:15:18 r, 09.26m,0000017536Hz,0000000000c,0000000.000s, 040.2C,00002195
2015-08-01 21:25:18 r, 10.14m,0000007817Hz,0000000000c,0000000.000s, 039.9C,00002195
2015-08-01 21:35:18 r, 11.33m,0000002615Hz,0000000000c,0000000.000s, 039.3C,00002195
2015-08-01 21:45:18 r, 13.63m,0000000314Hz,0000000000c,0000000.000s, 038.6C,00002195
2015-08-01 21:55:18 r, 15.07m,0000000084Hz,0000005558c,0000000.012s, 038.3C,00002195
2015-08-01 22:05:18 r, 15.32m,0000000065Hz,0000007010c,0000000.015s, 038.0C,00002195
2015-08-01 22:15:20 r, 16.08m,0000000032Hz,0000014142c,0000000.031s, 037.3C,00002195
2015-08-01 22:25:18 r, 16.72m,0000000018Hz,0000025300c,0000000.055s, 037.0C,00002195
2015-08-01 22:35:18 r, 16.17m,0000000031Hz,0000015358c,0000000.033s, 036.7C,00002195
2015-08-01 22:45:18 r, 16.53m,0000000021Hz,0000021453c,0000000.047s, 036.7C,00002195
2015-08-01 22:55:18 r, 16.14m,0000000032Hz,0000014715c,0000000.032s, 036.4C,00002195
2015-08-01 23:05:18 r, 18.03m,0000000006Hz,0000084256c,0000000.183s, 036.4C,00002195
2015-08-01 23:15:19 r, 16.19m,0000000030Hz,0000015542c,0000000.034s, 036.0C,00002195
2015-08-01 23:25:18 r, 17.51m,0000000009Hz,0000052406c,0000000.114s, 036.0C,00002195
2015-08-01 23:35:18 r, 16.90m,0000000015Hz,0000029838c,0000000.065s, 036.0C,00002195
2015-08-01 23:45:19 r, 16.31m,0000000027Hz,0000017427c,0000000.038s, 036.0C,00002195
2015-08-01 23:55:18 r, 16.28m,0000000027Hz,0000016924c,0000000.037s, 036.0C,00002195
